DC4AT Weather Reports


Display with metric or nautical units.
time (UTC)temp
F
wind
direction
speed
MPH
gust
MPH
rain 1hr
in
rain 24hr
in
rain mn
in
humidity
%
barometer
mb
20260506073331 51 69 1.0 4.0 0.01 0.34 0.34 80 1004.6
20260506072331 51 62 0.0 0.0 0.01 0.34 0.34 79 1004.7
20260506071331 51 62 0.0 0.0 0.01 0.34 0.34 80 1004.6
20260506070331 51 62 0.0 0.0 0.00 0.33 0.33 80 1004.7
20260506062331 51 57 2.0 4.0 0.00 0.33 0.33 80 1004.6
20260506061331 51 62 0.0 3.0 0.00 0.33 0.33 80 1004.6
20260506060331 51 62 1.0 1.0 0.00 0.33 0.33 80 1004.6
20260506051331 51 66 0.0 0.0 0.02 0.34 0.33 80 1004.6
20260506050331 51 67 0.0 0.0 0.02 0.34 0.33 80 1004.5
20260506044331 51 67 0.0 0.0 0.03 0.33 0.32 80 1004.5
20260506043331 50 67 0.0 0.0 0.04 0.34 0.32 80 1004.6
20260506042331 50 67 0.0 0.0 0.04 0.33 0.31 80 1004.5
20260506041331 50 67 0.0 0.0 0.04 0.33 0.31 80 1004.6
20260506040331 50 67 0.0 0.0 0.06 0.33 0.31 80 1004.5
20260506035331 51 67 0.0 2.0 0.05 0.32 0.30 80 1004.6
20260506034331 51 67 0.0 2.0 0.06 0.31 0.29 80 1004.7
20260506033332 51 67 0.0 3.0 0.05 0.31 0.28 80 1004.7
20260506032331 51 68 1.0 0.0 0.05 0.30 0.27 80 1004.9
20260506031331 51 68 2.0 4.0 0.06 0.30 0.27 80 1004.9
20260506030331 51 88 3.0 5.0 0.04 0.28 0.25 80 1004.9
20260506025331 51 74 2.0 4.0 0.06 0.28 0.25 81 1005.0
20260506024331 51 50 1.0 5.0 0.05 0.26 0.23 81 1005.2
20260506023331 51 13 0.0 0.0 0.06 0.26 0.23 81 1005.4
20260506022331 51 0 0.0 0.0 0.05 0.25 0.22 81 1005.6
20260506021331 51 349 0.0 0.0 0.06 0.24 0.21 81 1005.5
20260506020331 51 349 0.0 0.0 0.06 0.24 0.21 81 1005.5
20260506015331 51 349 0.0 0.0 0.05 0.22 0.19 81 1005.5
20260506014331 51 349 0.0 0.0 0.05 0.21 0.18 81 1005.6
20260506013331 51 348 0.0 0.0 0.05 0.20 0.17 81 1005.7
20260506012331 51 349 0.0 0.0 0.06 0.20 0.17 81 1005.8
20260506011331 51 349 0.0 0.0 0.05 0.18 0.15 81 1005.8
20260506010331 51 348 0.0 0.0 0.06 0.18 0.15 81 1005.7
20260506005331 51 349 0.0 0.0 0.06 0.17 0.14 81 1005.8
20260506004331 51 350 0.0 0.0 0.06 0.16 0.13 81 1005.8
20260506003332 51 350 0.0 1.0 0.05 0.15 0.12 81 1005.9
20260506002332 52 324 0.0 0.0 0.06 0.14 0.11 81 1006.0
20260506001332 52 355 0.0 0.0 0.05 0.13 0.10 81 1006.1
20260506000332 52 321 0.0 0.0 0.05 0.12 0.09 81 1006.2
20260505235332 52 327 0.0 2.0 0.05 0.11 0.08 81 1006.3
20260505234332 52 0 0.0 0.0 0.05 0.10 0.07 81 1006.4
20260505233332 52 355 0.0 0.0 0.06 0.11 0.07 82 1006.5
20260505232332 52 0 1.0 3.0 0.04 0.09 0.05 82 1006.5
20260505231332 52 48 2.0 3.0 0.05 0.09 0.05 81 1006.5
20260505230332 52 355 2.0 4.0 0.04 0.08 0.04 81 1006.5
20260505225332 52 22 2.0 5.0 0.03 0.07 0.03 81 1006.6
20260505224332 52 342 2.0 6.0 0.02 0.06 0.02 81 1006.6
20260505223332 53 328 3.0 5.0 0.01 0.05 0.01 82 1006.6
20260505222332 53 343 2.0 6.0 0.01 0.05 0.01 82 1006.6
20260505221332 53 33 2.0 4.0 0.00 0.04 0.04 82 1006.6
20260505220332 53 315 1.0 4.0 0.00 0.04 0.04 82 1006.7
20260505215332 53 337 2.0 5.0 0.00 0.04 0.04 82 1006.7
20260505214332 53 5 2.0 4.0 0.00 0.04 0.04 82 1006.8
20260505213332 53 355 2.0 3.0 0.00 0.04 0.04 82 1006.9
20260505212332 53 323 2.0 6.0 0.00 0.04 0.04 82 1006.9
20260505211332 54 309 3.0 6.0 0.00 0.04 0.04 82 1006.9
20260505210332 54 323 2.0 4.0 0.00 0.04 0.04 83 1007.0
20260505205332 54 355 1.0 5.0 0.00 0.04 0.04 83 1007.0
20260505204332 54 344 1.0 3.0 0.00 0.04 0.04 83 1007.0
20260505203332 54 340 1.0 4.0 0.00 0.04 0.04 83 1007.0
20260505202332 54 331 1.0 4.0 0.00 0.04 0.04 83 1007.0
20260505201332 54 355 1.0 2.0 0.00 0.04 0.04 83 1007.0
20260505200332 55 349 1.0 5.0 0.00 0.04 0.04 84 1007.0
20260505195332 55 315 2.0 3.0 0.00 0.04 0.04 84 1007.0
20260505194332 55 349 1.0 4.0 0.00 0.04 0.04 84 1007.0
20260505193332 55 34 2.0 4.0 0.00 0.11 0.04 84 1006.9
20260505192332 56 17 2.0 7.0 0.00 0.11 0.04 85 1006.9
20260505191332 56 53 2.0 4.0 0.00 0.11 0.04 85 1007.0
20260505190332 56 22 2.0 6.0 0.00 0.11 0.04 85 1006.9
20260505185332 57 67 2.0 5.0 0.00 0.11 0.04 85 1006.9
20260505184332 57 48 3.0 6.0 0.00 0.11 0.04 86 1006.9
20260505183332 57 347 2.0 6.0 0.00 0.18 0.04 85 1007.0
20260505182332 57 335 2.0 8.0 0.00 0.18 0.04 85 1007.0
20260505181332 57 40 3.0 7.0 0.00 0.18 0.04 85 1007.0
20260505180332 58 5 3.0 10.0 0.00 0.18 0.04 85 1007.0
20260505175332 58 81 3.0 6.0 0.00 0.18 0.04 85 1007.0
20260505174332 58 58 2.0 8.0 0.00 0.18 0.04 85 1006.9
20260505173332 58 36 4.0 10.0 0.00 0.18 0.04 85 1007.0
20260505172332 58 5 3.0 5.0 0.00 0.18 0.04 85 1007.0
20260505171332 58 26 3.0 7.0 0.00 0.18 0.04 85 1007.1
20260505170333 59 338 3.0 9.0 0.00 0.18 0.04 85 1007.1
20260505165333 59 279 4.0 12.0 0.00 0.18 0.04 84 1007.1
20260505164333 59 254 5.0 8.0 0.00 0.18 0.04 85 1007.2
20260505163333 59 329 5.0 11.0 0.00 0.18 0.04 84 1007.3
20260505162333 59 349 5.0 11.0 0.00 0.18 0.04 84 1007.4
20260505161333 59 311 4.0 10.0 0.00 0.18 0.04 84 1007.4
20260505160333 60 302 5.0 14.0 0.00 0.18 0.04 84 1007.3
20260505153333 60 108 5.0 10.0 0.00 0.18 0.04 84 1007.5
20260505152333 60 341 5.0 11.0 0.00 0.18 0.04 84 1007.6
20260505151333 60 19 5.0 10.0 0.00 0.18 0.04 83 1007.6
20260505150333 61 24 5.0 11.0 0.00 0.18 0.04 83 1007.6
20260505140333 63 338 6.0 11.0 0.00 0.18 0.04 80 1007.9
20260505124333 64 296 4.0 8.0 0.00 0.18 0.04 75 1008.2
20260505123333 64 331 4.0 8.0 0.00 0.18 0.04 76 1008.4
20260505122333 64 350 3.0 6.0 0.00 0.18 0.04 74 1008.4
20260505121333 63 319 4.0 8.0 0.00 0.18 0.04 75 1008.5
20260505120333 63 292 3.0 10.0 0.00 0.18 0.04 76 1008.6
20260505115333 63 326 4.0 9.0 0.00 0.18 0.04 77 1008.7
20260505114333 63 319 3.0 9.0 0.00 0.18 0.04 77 1008.6
20260505113333 63 315 3.0 7.0 0.00 0.18 0.04 80 1008.8
20260505112333 62 336 4.0 8.0 0.00 0.18 0.04 78 1008.9
20260505111333 62 316 3.0 5.0 0.00 0.18 0.04 78 1008.9
20260505110333 62 338 3.0 5.0 0.00 0.18 0.04 80 1009.0
20260505101333 60 289 0.0 1.0 0.00 0.18 0.04 85 1009.5
20260505100333 59 290 1.0 3.0 0.00 0.18 0.04 85 1009.6
20260505095333 59 284 1.0 3.0 0.00 0.18 0.04 84 1009.6
20260505094334 58 281 0.0 0.0 0.00 0.18 0.04 83 1009.5
20260505093333 58 281 0.0 0.0 0.00 0.18 0.04 82 1009.6
20260505092334 58 281 2.0 3.0 0.00 0.18 0.04 81 1009.7
20260505091334 58 333 0.0 0.0 0.00 0.18 0.04 80 1009.7
20260505090334 57 335 0.0 0.0 0.00 0.18 0.04 79 1009.7
20260505085334 57 67 0.0 0.0 0.00 0.18 0.04 79 1009.7
20260505084334 57 67 0.0 0.0 0.00 0.18 0.04 79 1009.7
20260505083334 57 67 0.0 0.0 0.00 0.18 0.04 78 1009.6
20260505082334 56 67 0.0 0.0 0.00 0.18 0.04 79 1009.6
20260505081334 56 67 0.0 0.0 0.00 0.18 0.04 79 1009.7
20260505080334 56 67 0.0 0.0 0.00 0.18 0.04 78 1009.8
20260505075334 56 67 0.0 0.0 0.00 0.18 0.04 78 1009.9
20260505074334 56 67 0.0 0.0 0.00 0.18 0.04 79 1009.8